Location: Richmond
(37.5540°N, 77.4610°W)
Time: 06:26:18
(UTC-05:00)

ISS - Visible Passes

Search period start: 24 November 2017 00:00
Search period end: 04 December 2017 00:00
Orbit: 402 x 407 km, 51.6° (Epoch: 24 November)

Date Brightness Start Highest point End Pass type
(mag) Time Alt. Az. Time Alt. Az. Time Alt. Az.
24 Nov -1.7 18:41:26 10° SSW 18:42:40 18° S 18:42:40 18° S visible
25 Nov -1.7 17:50:20 10° SSE 17:52:09 14° SE 17:52:56 13° ESE visible
25 Nov -0.6 19:25:06 10° WSW 19:25:37 14° WSW 19:25:37 14° WSW visible
26 Nov -3.8 18:32:42 10° SW 18:35:47 74° S 18:35:47 74° S visible
27 Nov -3.0 17:40:39 10° SSW 17:43:41 36° SE 17:45:51 16° ENE visible
27 Nov -0.9 19:17:30 10° W 19:18:31 16° WNW 19:18:31 16° WNW visible
28 Nov -2.8 18:24:37 10° WSW 18:27:43 40° NW 18:28:29 34° N visible
29 Nov -3.8 17:32:03 10° SW 17:35:20 81° NW 17:38:23 12° NE visible
29 Nov -0.8 19:10:25 10° WNW 19:11:02 12° NW 19:11:02 12° NW visible
30 Nov -1.8 18:17:04 10° W 18:19:37 20° NNW 18:20:52 17° N visible
01 Dec -2.5 17:24:04 10° W 17:27:04 33° NNW 17:30:05 10° NNE visible
02 Dec -1.3 18:10:05 10° NW 18:11:36 13° NNW 18:12:58 10° N visible
